| Shipment Reliability and Frequency | Volume of Goods |
|---|---|
| Avg. Shipments per Month: 8.58 | Average TEU per month: 12.83 |
| Active Months: 12 | Average TEU per Shipment: 1.50 |
| Shipment Frequency Std. Dev.: 1.98 |
| Company Name | Shipments |
|---|---|
| ALL SOURCE LAWRTN | 97 shipments |
| MODINE TRENMO | 89 shipments |
| MODINE LAWRTN | 83 shipments |
| ENGINEERED CONTROLS INTERNATIONAL | 35 shipments |
| REXNORD INDUSTRIES C/O AUBURN COUPL | 19 shipments |
| LAWRENCEBURG MODINE MFG CO | 8 shipments |
| MODINE PLEASANT PLAIN WH | 7 shipments |
| MODINE TRENMO WH | 7 shipments |
| MODINE LARETX | 5 shipments |
| MODINE MANUFACTURING COMPANY | 3 shipments |
| TRENTON MODINE MANUFACTURING CO | 3 shipments |
| TRENTON MODINE MFG CO | 2 shipments |
| MERSEN CANADA DN LTEE LTD | 1 shipments |
| HS Code | Shipments |
|---|---|
| 845430 Casting machines; of a kind used in metallurgy or in metal foundries | 324 shipments |
| 845430.0 Converters, ladles, ingot moulds and casting machines; of a kind used metallurgy or in metal foundries | 54 shipments |
| 070910 Vegetables; n.e.c. in chapter 07, fresh or chilled | 17 shipments |
| 392220 Plastics; lavatory seats and covers | 8 shipments |
| 392220.0 Sanitary ware; baths, shower-baths, sinks, wash-basins, bidets, lavatory pans, seats and covers, flushing cisterns and sanitary ware, of plastics | 8 shipments |
| 860610 Railway or tramway goods vans and wagons; tank wagons and the like, not self-propelled | 8 shipments |
| 252510 Mica; crude and rifted into sheets or splittings | 3 shipments |
| 290719.0 Phenols; monophenols, polyphenols, and phenol-alcohols | 3 shipments |
| 848130 Valves; check (nonreturn) valves, for pipes, boiler shells, tanks, vats or the like | 3 shipments |
| 293292 Heterocyclic compounds; with oxygen hetero-atom(s) only, (other than lactones or compounds containing an unfused furan ring (whether or not hydrogenated) in the structure), 1-(1,3-benzodiaxol-5-yl) propan-2-one | 2 shipments |
| 70910.0 | 2 shipments |
| 841581.0 Air conditioning machines; comprising a motor driven fan and elements for changing the temperature and humidity, including those machines in which the humidity cannot be separately regulated | 2 shipments |
| 848190 Taps, cocks, valves and similar appliances; parts thereof | 2 shipments |
| 360410 Pyrotechnic products; fireworks | 1 shipments |
| 482040 Paper and paperboard; manifold business forms and interleaved carbon sets | 1 shipments |
| 700910 Glass; rear-view mirrors for vehicles | 1 shipments |
| 740939.0 Copper plates, sheets and strip; of a thickness exceeding 0.15mm | 1 shipments |
| 841581 Air conditioning machines; containing a motor driven fan, other than window or wall types, incorporating a refrigerating unit and a valve for reversal of the cooling/heat cycle (reversible heat pumps) | 1 shipments |
| 842611 Cranes; overhead travelling cranes on fixed support | 1 shipments |
| 853690 Electrical apparatus; n.e.c. in heading no. 8536, for switching or protecting electrical circuits, for a voltage not exceeding 1000 volts | 1 shipments |
| Arrival Date | Bill Of Lading | Consignee | Weight | HS Code | Description |
|---|---|---|---|---|---|
| 2026-07-28 | DFDSEDC1790315 | 9678.0 kg | 845430 | TANK ASSY,CASTING PUR AL | |
| 2026-07-25 | RLUSS05047495 | REXNORD INDUSTRIES C/O AUBURN COUPL | 700.0 kg | 392220 | 1220T10 COVER, 1190T10 COVER |
| 2026-07-23 | DFDSEDC1789774 | 10389.0 kg | 845430 | TANK ASSY,CASTING PUR AL | |
| 2026-07-22 | DFDSEDC1854358 | 1055.0 kg | 845430 | TANK ASSY,CASTING PUR AL | |
| 2026-07-12 | DFDSEDC1826373 | 7478.0 kg | 845430 | TANK ASSY,CASTING PUR AL | |
| 2026-07-12 | DFDSEDC1826313 | 2999.0 kg | 845430 | TANK ASSY,CASTING PUR AL | |
| 2026-07-01 | DFDSEDC1805584 | 1950.0 kg | 845430 | TANK ASSY,CASTING PUR AL | |
| 2026-06-28 | DFDSEDC1789814 | 3490.0 kg | 845430 | TANK ASSY,CASTING PUR AL | |
| 2026-06-22 | RLUSS05031450 | REXNORD INDUSTRIES C/O AUBURN COUPL | 336.0 kg | 392220 | 1220T10 COVER |
| 2026-06-16 | DFDSEDC1749340 | 11073.0 kg | 845430 | TANK ASSY,CASTING PUR AL | |
| 2026-06-16 | RLUSS05019279 | REXNORD INDUSTRIES C/O AUBURN COUPL | 336.0 kg | 392220 | 1220T10 COVER |
| 2026-06-14 | DFDSEDC1789803 | 5256.0 kg | 845430 | TANK ASSY,CASTING PUR AL | |
| 2026-06-02 | DFDSEDC1749334 | 5687.0 kg | 845430 | TANK ASSY,CASTING PUR AL | |
| 2026-06-02 | DFDSEDC1749319 | 3760.0 kg | 845430 | TANK ASSY,CASTING PUR AL | |
| 2026-06-02 | DFDSEDC1749335 | 6910.0 kg | 845430 | TANK ASSY,CASTING PUR AL | |
| 2026-05-30 | DFDSEDC1713451 | 11292.0 kg | 845430 | TANK ASSY,CASTING PUR AL | |
| 2026-05-30 | DFDSEDC1749314 | 716.0 kg | 845430 | TANK ASSY,CASTING PUR AL | |
| 2026-05-30 | DFDSEDC1746519 | 7091.0 kg | 845430 | TANK ASSY,CASTING PUR AL | |
| 2026-05-27 | DFDSEDC1749332 | 10868.0 kg | 845430 | TANK ASSY,CASTING PUR AL | |
| 2026-05-25 | RLUSS04999704 | REXNORD INDUSTRIES C/O AUBURN COUPL | 432.0 kg | 392220 | 1200T10 & 1230T10 COVER |
| 2026-05-23 | DFDSEDC1713443 | 3040.0 kg | 845430 | TANK ASSY,CASTING PUR AL | |
| 2026-05-21 | DFDSEDC1713449 | 12272.0 kg | 845430 | TANK ASSY,CASTING PUR AL | |
| 2026-05-17 | DFDSEDC1687986 | 12290.0 kg | 845430 | TANK ASSY,CASTING PUR AL | |
| 2026-05-14 | DFDSEDC1713371 | 2112.0 kg | 845430 | TANK ASSY,CASTING PUR AL | |
| 2026-05-14 | DFDSEDC1736794 | 5305.0 kg | 845430 | TANK ASSY,CASTING PUR AL | |
| 2026-05-02 | DFDSEDC1713446 | 3534.0 kg | 845430 | TANK ASSY,CASTING PUR AL | |
| 2026-04-28 | RLUSS04955544 | REXNORD INDUSTRIES C/O AUBURN COUPL | 1002.0 kg | 290719.0 | T & T & T COVER |
| 2026-04-23 | DFDSEDC1646210 | 11348.0 kg | 845430.0 | TANK ASSY,CASTING PUR AL | |
| 2026-04-21 | DFDSEDC1687987 | MODINE MANUFACTURING COMPANY | 3790.0 kg | 845430.0 | TANK ASSY,CASTING PUR AL |
| 2026-04-16 | DFDSEDC1646222 | 11796.0 kg | 845430.0 | TANK ASSY,CASTING PUR AL | |
| 2026-04-16 | DFDSEDC1681579 | 803.0 kg | 845430.0 | TANK ASSY,CASTING PUR AL | |
| 2026-04-16 | DFDSEDC1682874 | 6685.0 kg | 845430.0 | TANK ASSY,CASTING PUR AL | |
| 2026-04-11 | RLUSS04923927 | REXNORD INDUSTRIES C/O AUBURN COUPL | 672.0 kg | 392220.0 | T COVER |
| 2026-04-09 | DFDSEDC1646202 | 10527.0 kg | 845430.0 | TANK ASSY,CASTING PUR AL | |
| 2026-04-03 | DFDSEDC1621489 | MODINE PLEASANT PLAIN WH | 5427.0 kg | 845430.0 | TANK ASSY,CASTING PUR AL |
| 2026-04-03 | DFDSEDC1646175 | 2814.0 kg | 845430.0 | TANK ASSY,CASTING PUR AL | |
| 2026-03-20 | RLUSS04923838 | REXNORD INDUSTRIES C/O AUBURN COUPL | 1855.0 kg | 392220.0 | T COVER, T COVER,T COVER |
| 2026-03-15 | DFDSEDC1610145 | 9802.0 kg | 845430.0 | TANK ASSY,CASTING PUR AL | |
| 2026-03-10 | RLUSS04910396 | REXNORD INDUSTRIES C/O AUBURN COUPL | 1153.0 kg | 392220.0 | T COVER, T COVER |
| 2026-03-09 | DFDSEDC1611437 | 9286.0 kg | 845430.0 | TANK ASSY,CASTING PUR AL | |
| 2026-03-06 | DFDSEDC1621546 | 3468.0 kg | 845430.0 | TANK ASSY,CASTING PUR AL | |
| 2026-03-04 | DFDSEDC1623370 | 12751.0 kg | 845430.0 | TANK ASSY,CASTING PUR AL | |
| 2026-02-27 | DFDSEDC1621402 | 2399.0 kg | 845430.0 | TANK ASSY,CASTING PUR AL | |
| 2026-02-17 | CHSL539603245PVG | ENGINEERED CONTROLS INTERNATIONAL | 129.0 kg | 841581.0 | VALVE SPARE PART (VALVE BODY) |
| 2026-02-17 | DFDSEDC1613917 | MODINE PLEASANT PLAIN WH | 4464.0 kg | 845430.0 | TANK ASSY,CASTING PUR AL |
| 2026-02-09 | DFDSEDC1568081 | 11556.0 kg | 845430.0 | TANK ASSY,CASTING PUR AL | |
| 2026-02-08 | DFDSEDC1578614 | 507.0 kg | 845430.0 | TANK ASSY,CASTING PUR AL | |
| 2026-02-08 | DFDSEDC1602635 | 472.0 kg | 845430.0 | TANK ASSY,CASTING PUR AL | |
| 2026-02-07 | DFDSEDC1579073 | 4842.0 kg | 845430.0 | TANK ASSY,CASTING PUR AL | |
| 2026-02-07 | DFDSEDC1578616 | 1456.0 kg | 845430.0 | TANK ASSY,CASTING PUR AL |